This demonstration page uses our WeatherBlox Daily Observations layout. Learn more.

Left ArrowRight Arrow

Hourly Observations for November 11, 2019

Temp ( °F °C ) Dew Point ( °F °C ) Humidity (%) Winds ( mph kmh ) Pressure ( in mb ) Visibility ( mi km ) Precip ( " mm )
12:56 am 00:56 Windy with Snow Likely 20 -6.7 15 -9.4 81 81 N 26 43 30.45 1031 8 13 0.00 0.00
1:39 am 01:39 Windy with Snow Likely 18 -8 14 -10 86 86 N 25 41 30.59 1036 6 10 0.00 0.00
1:56 am 01:56 Windy with Snow Likely 18 -7.8 14 -10 84 84 N 20 31 30.49 1033 3 5 0.00 0.00
2:24 am 02:24 Windy with Snow Likely 18 -8 14 -10 86 86 N 22 35 30.63 1037 5 8 0.00 0.00
2:33 am 02:33 Windy with Snow Likely 18 -8 14 -10 86 86 N 22 35 30.63 1037 3 4 0.00 0.00
2:37 am 02:37 Cloudy with Light Snow 18 -8 14 -10 86 86 N 18 30 30.63 1037 2 3 0.00 0.00
2:46 am 02:46 Windy with Snow Likely 18 -8 12 -11 79 79 N 29 46 30.64 1037 2 3 0.00 0.00
2:56 am 02:56 Windy with Snow Likely 17 -8.3 14 -10 88 88 N 23 37 30.54 1034 3 4 0.00 0.00
3:26 am 03:26 Windy with Snow Likely 16 -9 12 -11 86 86 N 26 43 30.67 1038 2 3 0.00 0.00
3:28 am 03:28 Windy with Snow Likely 16 -9 12 -11 86 86 N 28 44 30.67 1038 2 3 0.00 0.00
3:35 am 03:35 Windy with Snow Likely 16 -9 12 -11 86 86 N 25 41 30.68 1039 2 3 0.00 0.00
3:56 am 03:56 Windy with Snow Likely 16 -8.9 12 -11.1 84 84 N 21 33 30.57 1035 3 5 0.00 0.00
4:08 am 04:08 Windy with Snow Likely 16 -9 12 -11 86 86 N 30 48 30.68 1039 2 3 0.00 0.00
4:25 am 04:25 Mostly Cloudy with Light Snow 16 -9 12 -11 86 86 N 25 41 30.69 1039 3 5 0.00 0.00
4:33 am 04:33 Partly Cloudy with Scattered Snow Showers 16 -9 10 -12 79 79 N 22 35 30.69 1039 5 8 0.00 0.00
4:56 am 04:56 Partly Cloudy with Isolated Snow Showers 15 -9.4 11 -11.7 84 84 N 21 33 30.59 1036 6 10 0.00 0.00
5:09 am 05:09 Mostly Cloudy with Light Snow 16 -9 10 -12 79 79 N 18 30 30.70 1039 5 8 0.00 0.00
5:56 am 05:56 Cloudy with Light Snow 15 -9.4 12 -11.1 88 88 N 17 28 30.62 1037 3 5 0.00 0.00
6:14 am 06:14 Partly Cloudy with Scattered Snow Showers 16 -9 10 -12 79 79 N 23 37 30.73 1040 8 13 0.00 0.00
6:46 am 06:46 Mostly Cloudy 16 -9 10 -12 79 79 N 22 35 30.75 1041 9 14 0.00 0.00
6:56 am 06:56 Windy with Snow Likely 15 -9.4 10 -12.2 80 80 N 21 33 30.67 1039 10 16 0.00 0.00
7:50 am 07:50 Windy with Snow Likely 16 -9 10 -12 79 79 N 28 44 30.77 1042 3 4 0.00 0.00
7:53 am 07:53 Windy with Snow Likely 16 -9 10 -12 79 79 N 33 54 30.77 1042 1 2 0.00 0.00
7:56 am 07:56 Windy with Snow Likely 14 -10 8 -13.3 77 77 N 31 50 30.69 1039 1 2 0.00 0.00
8:02 am 08:02 Windy with Snow Likely 14 -10 9 -13 79 79 N 26 43 30.79 1043 2 3 0.00 0.00
8:05 am 08:05 Windy with Snow Likely 14 -10 7 -14 73 73 N 25 41 30.80 1043 4 6 0.00 0.00
8:44 am 08:44 Mostly Cloudy with Light Snow 12 -11 7 -14 79 79 N 26 43 30.84 1044 8 13 0.00 0.00
8:56 am 08:56 Windy with Snow Likely 13 -10.6 7 -13.9 77 77 N 26 43 30.74 1041 5 8 0.00 0.00
9:56 am 09:56 Mostly Cloudy with Light Snow 14 -10 7 -13.9 73 73 N 22 35 30.75 1041 6 10 0.00 0.00
10:14 am 10:14 Partly Cloudy 14 -10 7 -14 73 73 N 22 35 30.84 1044 7 11 0.00 0.00
10:56 am 10:56 Sunny 14 -10 5 -15 67 67 N 21 33 30.77 1042 10 16 0.00 0.00
11:56 am 11:56 Mostly Sunny 15 -9.4 4 -15.6 61 61 N 23 37 30.77 1042 10 16 0.00 0.00
12:47 pm 12:47 Mostly Cloudy 16 -9 5 -15 62 62 NNW 20 31 30.83 1044 10 16 0.00 0.00
12:56 pm 12:56 Mostly Cloudy 15 -9.4 5 -15 64 64 N 18 30 30.76 1042 10 16 0.00 0.00
1:05 pm 13:05 Cloudy 16 -9 5 -15 62 62 N 20 31 30.83 1044 10 16 0.00 0.00
1:56 pm 13:56 Mostly Cloudy 18 -7.8 6 -14.4 59 59 NNW 22 35 30.73 1041 10 16 0.00 0.00
2:56 pm 14:56 Partly Cloudy 17 -8.3 6 -14.4 62 62 NNW 22 35 30.73 1041 10 16 0.00 0.00
3:20 pm 15:20 Mostly Cloudy 18 -8 7 -14 62 62 N 21 33 30.79 1043 10 16 0.00 0.00
3:34 pm 15:34 Partly Cloudy 18 -8 7 -14 62 62 N 20 31 30.80 1043 10 16 0.00 0.00
3:56 pm 15:56 Mostly Sunny 16 -8.9 5 -15 62 62 NNW 17 28 30.74 1041 10 16 0.00 0.00
4:25 pm 16:25 Mostly Cloudy 18 -8 7 -14 62 62 NNW 12 19 30.80 1043 10 16 0.00 0.00
4:39 pm 16:39 Partly Cloudy 16 -9 7 -14 67 67 NNW 13 20 30.81 1043 10 16 0.00 0.00
4:56 pm 16:56 Mostly Cloudy 16 -8.9 7 -13.9 67 67 NNW 10 17 30.75 1041 10 16 0.00 0.00
5:12 pm 17:12 Partly Cloudy 16 -9 7 -14 67 67 NNW 13 20 30.82 1044 10 16 0.00 0.00
5:56 pm 17:56 Clear 13 -10.6 5 -15 70 70 NNW 8 13 30.76 1042 10 16 0.00 0.00
6:56 pm 18:56 Clear 11 -11.7 4 -15.6 73 73 NW 6 9 30.77 1042 10 16 0.00 0.00
7:56 pm 19:56 Clear 7 -13.9 1 -17.2 76 76 NW 6 9 30.78 1042 10 16 0.00 0.00
8:56 pm 20:56 Clear 6 -14.4 1 -17.2 79 79 WNW 6 9 30.78 1042 10 16 0.00 0.00
9:56 pm 21:56 Clear 5 -15 1 -17.2 83 83 WNW 5 7 30.79 1043 10 16 0.00 0.00
10:56 pm 22:56 Clear 5 -15 0 -17.8 79 79 WNW 7 11 30.77 1042 10 16 0.00 0.00
11:56 pm 23:56 Clear 3 -16.1 -2 -18.9 79 79 W 6 9 30.76 1042 10 16 0.00 0.00

Powered by AerisWeather